[[{"header":{"parameterUnit":"m.s-1","parameterCategory":1,"la1":30.2991,"la2":30.254,"lo1":-89.0895,"lo2":-89.0444,"dy":0.0017,"dx":0.0017,"nx":28,"ny":28,"refTime":"2025-05-31T21:00:00:Z","depth":0,"parameterNumber":2,"parameterNumberName":"U-component_of_WINDS"},"data":[0,0,0,0,0,0,0,0,0,0,0,0,0,0,0,0,0,0,0,0,0,0,0,0,0,0,0,0,0,0,0,0,0,0,0,0,0,0,0,0,0,0,0,0,0,0,0,0,0,0,0,0,0,0,0,0,0,0,1.9639,1.964,0,1.977,1.9771,1.9773,1.9802,1.9801,1.98,1.9799,1.9934,1.9938,1.9943,0,0,0,0,0,0,0,0,0,0,0,0,0,1.9414,1.9418,1.9639,1.9641,1.9642,1.9769,1.9771,1.9773,1.9802,1.9801,1.98,1.9799,1.9932,1.9938,1.9943,0,0,0,0,0,0,0,0,0,0,0,0,0,1.9525,1.9419,1.9639,1.9672,1.9676,1.9769,1.9771,1.9773,1.9802,1.9801,1.9799,1.9798,1.9931,1.9937,1.9944,2.0013,0,0,1.9964,1.9967,0,0,0,0,0,0,0,0,1.9518,1.9533,1.9665,1.967,1.9675,1.9768,1.9741,1.9854,1.9803,1.9754,1.9799,1.9797,1.988,1.9891,1.9918,2.0019,2.0025,1.9965,1.9969,1.9972,1.9974,0,0,0,0,0,0,0,1.9511,1.9527,1.9691,1.9667,1.9673,1.968,1.9694,1.9763,1.9823,1.9759,1.9761,1.9776,1.9882,1.9912,1.9922,2.0027,1.9965,1.997,1.9975,1.9977,2.0188,2.0189,0,0,0,0,0,0,1.9497,1.9521,1.9686,1.9695,1.9592,1.9685,1.9701,1.9739,1.9823,1.9834,1.9777,1.9777,1.9901,1.9914,1.9926,2.0011,1.9972,1.9978,1.9982,2.0186,2.0188,2.019,0,0,0,0,0,0,1.9492,1.9512,1.9681,1.9608,1.9631,1.9691,1.9733,1.9743,1.9772,1.9837,1.9848,1.9796,1.99,1.9917,1.999,2.0016,1.9981,1.9987,2.0184,2.0187,2.0189,2.0181,0,0,0,0,0,0,1.9486,1.951,1.9537,1.9609,1.9634,1.9743,1.9735,1.9746,1.9784,1.9785,1.9857,1.9868,1.9901,1.998,1.9997,2.0024,1.9992,2.0182,2.0186,2.0188,2.0179,2.0182,2.0185,0,0,0,0,0,1.9478,1.953,1.9538,1.9558,1.967,1.9745,1.9759,1.9795,1.9786,1.9813,1.9854,1.9866,2.001,1.9987,2.0007,2.0036,2.0181,2.0185,2.0188,2.0177,2.0182,2.0185,0,0,0,0,0,0,1.946,1.954,1.955,1.9627,1.9679,1.9749,1.9785,1.9799,1.9854,1.9853,1.9896,1.9912,1.9982,2.0017,1.999,2.0106,2.0095,2.0103,2.008,2.0085,2.0088,2.0078,1.9998,0,0,0,0,0,1.9465,1.952,1.9587,1.9649,1.9674,1.9725,1.9759,1.9782,1.9837,1.9859,1.9906,1.9959,2.0016,2.0053,2.0109,2.0184,2.0199,2.0214,2.0217,2.0219,2.0225,2.0265,2.0272,2.0202,2.0202,2.0202,0,0,1.9477,1.9527,1.9559,1.9646,1.9689,1.9743,1.9743,1.9802,1.9842,1.9868,1.9939,1.9975,2.0037,2.0111,2.0146,2.0142,2.0248,2.0224,2.0225,2.023,2.0269,2.0276,2.0282,2.0204,2.0204,2.0203,0,0,1.9525,1.9569,1.9624,1.9667,1.9731,1.9764,1.9777,1.9845,1.9869,1.9942,1.9961,2.001,2.0109,2.0151,2.0186,2.0247,2.026,2.0265,2.0281,2.032,2.0325,2.033,2.035,2.0357,2.027,2.027,2.027,0,1.9531,1.9614,1.9651,1.9708,1.9745,1.977,1.9825,1.9865,1.9944,1.9968,1.9963,2.0085,2.0129,2.0212,2.0226,2.0254,2.0269,2.0256,2.0321,2.0327,2.0332,2.0352,2.0359,2.027,2.027,2.027,2.027,0,1.9617,1.9674,1.9711,1.9786,1.9827,1.9883,1.9927,1.9965,1.9984,2.0017,2.0089,2.0142,2.0208,2.023,2.025,2.0315,2.0311,2.0313,2.0303,2.0338,2.0357,2.0365,2.027,2.027,2.027,2.027,0,0,1.9659,1.9751,1.9764,1.9797,1.9869,1.9913,1.997,2.0034,2.0064,2.0118,2.0165,2.0246,2.0248,2.0287,2.0312,2.0345,2.0388,2.0344,2.0346,2.0348,2.0461,2.0457,2.0465,2.0397,2.0399,2.04,2.0455,0,1.9714,1.9815,1.9849,1.9932,1.9984,2.0008,2.0057,2.0105,2.0138,2.0187,2.0223,2.0279,2.0278,2.0301,2.0336,2.0375,2.0411,2.0372,2.044,2.0442,2.0422,2.0476,2.0473,2.0522,2.0463,2.0464,2.0465,0,1.9792,1.9845,1.9933,1.9996,2.0019,2.0062,2.0123,2.0169,2.0224,2.0246,2.0288,2.0309,2.0368,2.0355,2.0435,2.0408,2.0438,2.0461,2.0464,2.0471,2.0455,2.0482,2.0539,2.0546,2.0477,2.0476,2.0476,0,1.9811,1.9904,1.9969,1.9997,2.0072,2.0101,2.0134,2.0188,2.0224,2.0276,2.0299,2.0359,2.0391,2.0436,2.0472,2.046,2.0549,2.0539,2.0567,2.0566,2.0584,2.0582,2.0644,2.0605,2.0605,2.0605,2.0605,0,1.9868,1.992,1.9978,2.0017,2.0076,2.0114,2.0172,2.0206,2.0253,2.0299,2.0324,2.0366,2.0412,2.0461,2.049,2.0551,2.0566,2.0584,2.059,2.0581,2.0578,2.06,2.0597,2.0607,2.0607,2.0606,2.0606,0,1.9898,1.9939,2.001,2.0075,2.0093,2.0133,2.0189,2.0227,2.026,2.0318,2.0333,2.0385,2.0443,2.0484,2.0559,2.0578,2.0643,2.0651,2.0624,2.0627,2.0652,2.0648,2.073,2.0741,2.0696,2.0696,2.0696,0,1.9932,1.9972,2.0041,2.0073,2.0106,2.0157,2.0193,2.0232,2.0268,2.0333,2.0363,2.0423,2.0472,2.0563,2.0607,2.0664,2.0672,2.0697,2.0681,2.0669,2.067,2.0667,2.067,2.0698,2.0699,2.0699,2.0699,0,1.9985,2.0003,2.0054,2.0111,2.0153,2.02,2.0247,2.0272,2.0319,2.0358,2.0417,2.0455,2.0531,2.0589,2.0649,2.0683,2.0698,2.0704,2.0713,2.0703,2.0685,2.0693,2.0629,2.0702,2.0701,2.0701,2.0701,2.0701,2.0017,2.0053,2.0107,2.0162,2.0201,2.0244,2.0283,2.032,2.037,2.0434,2.0454,2.0514,2.0567,2.0649,2.0683,2.0731,2.073,2.0743,2.0746,2.0749,2.0747,2.0678,2.0742,2.0742,2.0742,2.0742,2.0742,0,2.007,2.0105,2.0156,2.022,2.0263,2.0274,2.0326,2.0361,2.0414,2.0461,2.0509,2.0575,2.0631,2.0679,2.0737,2.0765,2.0774,2.0779,2.0777,2.0784,2.0746,2.0732,2.0771,2.0771,2.0771,2.0771,2.0771,2.0771,2.0103,2.0164,2.0188,2.0268,2.0303,2.0362,2.0391,2.043,2.0468,2.0541,2.0587,2.0618,2.0665,2.0726,2.0777,2.0789,2.0809,2.0812,2.0826,2.079,2.0787,2.0783,2.077,2.0816,2.0816,2.0859,2.086,2.086]},{"header":{"parameterUnit":"m.s-1","parameterCategory":1,"la1":30.2991,"la2":30.254,"lo1":-89.0895,"lo2":-89.0444,"dy":0.0017,"dx":0.0017,"nx":28,"ny":28,"refTime":"2025-05-31T21:00:00:Z","depth":0,"parameterNumber":3,"parameterNumberName":"V-component_of_WINDS"},"data":[0,0,0,0,0,0,0,0,0,0,0,0,0,0,0,0,0,0,0,0,0,0,0,0,0,0,0,0,0,0,0,0,0,0,0,0,0,0,0,0,0,0,0,0,0,0,0,0,0,0,0,0,0,0,0,0,0,0,3.4742,3.4741,0,3.4693,3.4693,3.4692,3.4645,3.4644,3.4644,3.4643,3.4592,3.4591,3.459,0,0,0,0,0,0,0,0,0,0,0,0,0,3.4792,3.4791,3.4742,3.4741,3.4741,3.4693,3.4693,3.4692,3.4645,3.4644,3.4644,3.4643,3.4592,3.4591,3.459,0,0,0,0,0,0,0,0,0,0,0,0,0,3.476,3.4791,3.4742,3.4712,3.4708,3.4693,3.4693,3.4692,3.4645,3.4644,3.4643,3.4643,3.4593,3.4591,3.459,3.4601,0,0,3.4587,3.4586,0,0,0,0,0,0,0,0,3.4761,3.4758,3.4717,3.4714,3.471,3.4674,3.4691,3.4661,3.4645,3.4669,3.4643,3.4642,3.462,3.4616,3.4609,3.4599,3.4596,3.4586,3.4586,3.4585,3.4585,0,0,0,0,0,0,0,3.4764,3.476,3.4722,3.4716,3.4712,3.47,3.4694,3.4685,3.465,3.4667,3.4663,3.4658,3.4618,3.4611,3.4608,3.4596,3.4586,3.4585,3.4585,3.4584,3.4588,3.4589,0,0,0,0,0,0,3.4771,3.4762,3.4724,3.4721,3.4734,3.4699,3.4693,3.4687,3.465,3.4644,3.4659,3.4656,3.4613,3.4609,3.4606,3.4614,3.4585,3.4584,3.4583,3.4587,3.4588,3.4589,0,0,0,0,0,0,3.4772,3.4768,3.4726,3.474,3.4734,3.47,3.4693,3.4686,3.4679,3.4644,3.4638,3.4658,3.4612,3.4607,3.4602,3.4611,3.4584,3.4582,3.4586,3.4588,3.4589,3.4631,0,0,0,0,0,0,3.4774,3.4769,3.4773,3.4741,3.4734,3.4724,3.4693,3.4686,3.4677,3.4673,3.4642,3.4636,3.4611,3.4604,3.4601,3.4609,3.4582,3.4585,3.4587,3.4588,3.4629,3.4634,3.4638,0,0,0,0,0,3.4776,3.4787,3.4773,3.4769,3.4738,3.4725,3.472,3.4692,3.4678,3.4681,3.4659,3.4637,3.4611,3.4604,3.46,3.4608,3.4585,3.4587,3.4588,3.4627,3.4633,3.4638,0,0,0,0,0,0,3.4821,3.4782,3.4767,3.4768,3.475,3.4717,3.472,3.47,3.4685,3.4682,3.4647,3.4641,3.4638,3.4623,3.4615,3.4615,3.4595,3.4596,3.4625,3.4631,3.4635,3.4638,3.4581,0,0,0,0,0,3.4831,3.4824,3.479,3.4795,3.4786,3.4755,3.4748,3.4728,3.4708,3.4699,3.4677,3.4657,3.4645,3.4637,3.4624,3.4627,3.4618,3.463,3.4635,3.4639,3.4639,3.4637,3.4642,3.4595,3.4595,3.4595,0,0,3.4852,3.483,3.4827,3.4803,3.4787,3.4779,3.4749,3.4742,3.4735,3.4698,3.4691,3.4674,3.465,3.4648,3.4646,3.4635,3.465,3.4641,3.4644,3.4643,3.464,3.4644,3.4648,3.4597,3.4596,3.4596,0,0,3.4885,3.4869,3.4869,3.4853,3.4829,3.4808,3.4808,3.4778,3.4765,3.4757,3.4729,3.472,3.47,3.4683,3.4672,3.4698,3.4676,3.4694,3.4718,3.4716,3.472,3.4723,3.473,3.4733,3.4696,3.4696,3.4696,0,3.4913,3.4901,3.4872,3.4867,3.4856,3.4823,3.4822,3.4808,3.4781,3.4773,3.4762,3.4734,3.4716,3.4708,3.4714,3.4707,3.4705,3.4697,3.4722,3.4724,3.4727,3.4733,3.4736,3.4698,3.4698,3.4698,3.4697,0,3.4936,3.4928,3.4932,3.4905,3.4896,3.4893,3.4863,3.4856,3.4837,3.4817,3.4808,3.4785,3.4765,3.4762,3.4744,3.4752,3.4745,3.4728,3.4707,3.4734,3.4739,3.4741,3.4701,3.47,3.47,3.4699,0,0,3.4995,3.4953,3.4955,3.4942,3.4912,3.4905,3.49,3.4881,3.4875,3.4857,3.4851,3.4834,3.4817,3.4805,3.4784,3.4783,3.4802,3.4765,3.4764,3.4771,3.4806,3.4818,3.4821,3.4788,3.4788,3.4789,3.4807,0,3.5022,3.5012,3.4985,3.4982,3.4973,3.4941,3.4937,3.4917,3.4899,3.4887,3.4866,3.4854,3.4834,3.4826,3.4823,3.48,3.4808,3.4799,3.478,3.4779,3.4785,3.4824,3.4837,3.4856,3.481,3.481,3.481,0,3.5051,3.5035,3.5031,3.5001,3.4996,3.4993,3.4972,3.4963,3.4939,3.4925,3.4911,3.4888,3.4879,3.4861,3.4848,3.4842,3.4833,3.482,3.482,3.4815,3.4795,3.4819,3.4862,3.4864,3.4814,3.4813,3.4813,0,3.5091,3.5069,3.5064,3.5054,3.5019,3.5017,3.5002,3.4978,3.4968,3.495,3.4943,3.4924,3.4913,3.4899,3.4871,3.486,3.486,3.4839,3.4846,3.4847,3.4846,3.4846,3.4886,3.4844,3.4844,3.4844,3.4843,0,3.5122,3.5121,3.5081,3.5078,3.5075,3.5044,3.5042,3.5024,3.5003,3.4994,3.4965,3.4958,3.4922,3.491,3.4888,3.4879,3.4875,3.4862,3.4855,3.4863,3.4864,3.4855,3.4852,3.4844,3.4844,3.4844,3.4844,0,3.5166,3.514,3.5131,3.5099,3.5091,3.509,3.5061,3.5056,3.5035,3.5025,3.502,3.4988,3.4971,3.4942,3.4918,3.4903,3.4898,3.4889,3.4906,3.4901,3.4909,3.4908,3.4943,3.4945,3.4904,3.4904,3.4904,0,3.5186,3.5185,3.5152,3.5145,3.5131,3.5119,3.5109,3.5079,3.5068,3.5041,3.5039,3.5021,3.5004,3.498,3.4953,3.4933,3.4922,3.4936,3.4919,3.4926,3.492,3.4919,3.4918,3.4939,3.4939,3.494,3.494,0,3.5225,3.5212,3.5198,3.5179,3.5168,3.5152,3.5134,3.5129,3.5095,3.5084,3.5068,3.5055,3.503,3.5012,3.4988,3.4971,3.4949,3.4946,3.4946,3.4953,3.4962,3.4955,3.4914,3.4945,3.4944,3.4944,3.4944,3.4944,3.5256,3.5252,3.5228,3.5213,3.5197,3.5181,3.5174,3.5152,3.5138,3.5116,3.5099,3.5083,3.5059,3.5025,3.5009,3.4996,3.4985,3.4986,3.4986,3.4986,3.4988,3.4966,3.4991,3.4991,3.4991,3.4991,3.4991,0,3.529,3.5273,3.526,3.5237,3.5225,3.5207,3.5186,3.5176,3.5163,3.5143,3.5127,3.5107,3.5089,3.5061,3.504,3.5034,3.5023,3.5029,3.5028,3.5024,3.5,3.5001,3.5038,3.5038,3.5038,3.5038,3.5038,3.5038,3.5307,3.5299,3.5283,3.5266,3.5249,3.5234,3.5223,3.5208,3.5191,3.517,3.5155,3.5137,3.5113,3.509,3.5072,3.5064,3.5056,3.5065,3.5054,3.5031,3.5026,3.5022,3.5023,3.5064,3.5064,3.5079,3.5079,3.5079]}]]